Weather History for KBFI - June, 2013

Change the Weather History Date:

Saturday, June 22, 2013

  Actual Average Record
Temperature  
Mean Temperature 66 °F -  
Max Temperature 79 °F 70 °F 92 °F (1992)
Min Temperature 55 °F 52 °F 45 °F (1952)
Cooling Degree Days 2    
Growing Degree Days 16 (Base 50)    
Moisture  
Dew Point 51 °F    
Average Humidity 57    
Maximum Humidity 84    
Minimum Humidity 36    
Precipitation  
Precipitation 0.00 in - - ()
Sea Level Pressure  
Sea Level Pressure 30.00 in    
Wind  
Wind Speed 1 mph (WNW)    
Max Wind Speed 6 mph    
Max Gust Speed -    
Visibility 10 miles    
Events      
Averages and records for this station are not official NWS values.
T = Trace of Precipitation, MM = Missing Value Source: NWS Daily Summary

Daily Weather History Graph

Daily Weather History Graph

Search for Another Location

Airport or City:

Trip Planner

Search our weather history database for the weather conditions in past years. The results will help you decide how hot, cold, wet, or windy it might be!

Date:

Astronomy

Jun. 22, 2013 Rise Set
Actual Time 5:12 AM PDT 9:10 PM PDT
Civil Twilight 4:31 AM PDT 9:51 PM PDT
Nautical Twilight 3:35 AM PDT 10:47 PM PDT
Astronomical Twilight 2:05 AM PDT 12:17 AM PDT
Moon 8:25 PM PDT (6/22) 4:35 AM PDT (6/22)
Length of Visible Light 17h 19m
Length of Day
15h 58m
Waxing Gibbous, 99% of the Moon is Illuminated
Jun 22
Waxing Gibbous
Jun 23
Full
Jun 29
Last Quarter
Jul 8
New
Jul 15
First Quarter

Hourly Weather History & Observations

Time (PDT) Temp. Dew Point Humidity Pressure Visibility Wind Dir Wind Speed Gust Speed Precip Events Conditions
12:53 AM 59.0 °F 51.1 °F 75% 30.12 in 10.0 mi Calm Calm - N/A   Clear
1:53 AM 57.9 °F 50.0 °F 75% 30.13 in 10.0 mi Calm Calm - N/A   Clear
2:53 AM 57.0 °F 51.1 °F 81% 30.12 in 10.0 mi Calm Calm - N/A   Clear
3:53 AM 57.0 °F 52.0 °F 83% 30.11 in 10.0 mi Calm Calm - N/A   Clear
4:53 AM 57.0 °F 52.0 °F 83% 30.10 in 10.0 mi Calm Calm - N/A   Scattered Clouds
5:53 AM 55.9 °F 51.1 °F 84% 30.10 in 10.0 mi Calm Calm - N/A   Scattered Clouds
6:53 AM 57.9 °F 52.0 °F 81% 30.10 in 10.0 mi Calm Calm - N/A   Partly Cloudy
7:53 AM 60.1 °F 52.0 °F 75% 30.08 in 10.0 mi Calm Calm - N/A   Scattered Clouds
8:53 AM 63.0 °F 53.1 °F 70% 30.07 in 10.0 mi Calm Calm - N/A   Clear
9:53 AM 68.0 °F 53.1 °F 59% 30.06 in 10.0 mi Calm Calm - N/A   Clear
10:53 AM 69.1 °F 53.1 °F 57% 30.04 in 10.0 mi Calm Calm - N/A   Partly Cloudy
11:53 AM 71.1 °F 52.0 °F 51% 30.02 in 10.0 mi Variable 4.6 mph - N/A   Partly Cloudy
12:53 PM 75.0 °F 51.1 °F 43% 30.00 in 10.0 mi NW 5.8 mph - N/A   Partly Cloudy
1:53 PM 75.0 °F 50.0 °F 41% 29.99 in 10.0 mi NW 4.6 mph - N/A   Scattered Clouds
2:53 PM 75.9 °F 46.9 °F 36% 29.97 in 10.0 mi NW 4.6 mph - N/A   Scattered Clouds
3:53 PM 77.0 °F 48.9 °F 37% 29.95 in 10.0 mi Variable 3.5 mph - N/A   Scattered Clouds
4:53 PM 78.1 °F 48.9 °F 36% 29.92 in 10.0 mi Variable 4.6 mph - N/A   Scattered Clouds
5:53 PM 78.1 °F 48.9 °F 36% 29.90 in 10.0 mi SSW 4.6 mph - N/A   Clear
6:53 PM 78.1 °F 48.9 °F 36% 29.88 in 10.0 mi SSE 4.6 mph - N/A   Clear
7:53 PM 77.0 °F 48.9 °F 37% 29.88 in 10.0 mi Calm Calm - N/A   Scattered Clouds
8:53 PM 72.0 °F 48.9 °F 44% 29.88 in 10.0 mi NW 4.6 mph - N/A   Clear
9:53 PM 69.1 °F 50.0 °F 51% 29.88 in 10.0 mi NW 3.5 mph - N/A   Clear
10:53 PM 68.0 °F 50.0 °F 52% 29.87 in 10.0 mi Calm Calm - N/A   Clear
11:53 PM 66.9 °F 48.9 °F 52% 29.86 in 10.0 mi NW 4.6 mph - N/A   Clear